This is the latest recevied weather packets stored in our database for station/object KQ4HEI. If no packets are shown the sender has not sent any weather packets the latest 1 day(s).
| Time | Temp. | Humidity | Pressure | Rain* | Wind** | Luminosity | Snow |
|---|---|---|---|---|---|---|---|
| 1778056556 | 18.89° C | 99% | 1012.7 hPa | 0 mm | - | - | - |
| 1778056519 | 18.89° C | 99% | 1012.7 hPa | 0 mm | - | - | - |
| 1778055331 | 18.33° C | 99% | 1012.9 hPa | 0 mm | - | - | - |
| 1778054101 | 18.33° C | 99% | 1012.9 hPa | 0 mm | - | - | - |
| 1778052869 | 18.33° C | 99% | 1013 hPa | 0 mm | - | - | - |
| 1778051745 | 17.78° C | 99% | 1013 hPa | 0 mm | - | - | - |
| 1778051669 | 17.78° C | 99% | 1013 hPa | 0 mm | - | - | - |
| 1778050574 | 17.78° C | 99% | 1013 hPa | 0 mm | - | - | - |
| 1778050541 | 17.78° C | 99% | 1013 hPa | 0 mm | - | - | - |
| 1778050470 | 17.78° C | 99% | 1013 hPa | 0 mm | - | - | - |
| 1778049305 | 17.22° C | 99% | 1013 hPa | 0 mm | - | - | - |
| 1778049270 | 17.22° C | 99% | 1013 hPa | 0 mm | - | - | - |
| 1778048069 | 17.22° C | 99% | 1013.4 hPa | 0 mm | - | - | - |
| 1778045669 | 16.67° C | 99% | 1013.6 hPa | 0 mm | - | - | - |
| 1778044469 | 16.67° C | 99% | 1013.6 hPa | 0 mm | - | - | - |
| 1778043269 | 16.67° C | 99% | 1013.9 hPa | 0 mm | - | - | - |
| 1778042069 | 17.22° C | 98% | 1014.2 hPa | 0 mm | - | - | - |
| 1778040869 | 17.22° C | 98% | 1014.2 hPa | 0 mm | - | - | - |
| 1778039669 | 17.78° C | 98% | 1014.2 hPa | 0 mm | - | - | - |
| 1778037269 | 18.33° C | 96% | 1014.2 hPa | 0 mm | - | - | - |
| 1778036070 | 18.89° C | 96% | 1013.9 hPa | 0 mm | - | - | - |
| 1778034869 | 18.89° C | 94% | 1013.7 hPa | 0 mm | - | - | - |
| 1778033669 | 19.44° C | 90% | 1014.1 hPa | 0 mm | - | - | - |
| 1778032469 | 20° C | 89% | 1014 hPa | 0 mm | - | - | - |
| 1778031269 | 20.56° C | 86% | 1013.6 hPa | 0 mm | - | - | - |
* Rain latest hour (hover to see other rain measurements)
** Current wind speed in m/s (hover to see current wind gust speed)